Location: Orange Harbor Mobile Home Park
(26.6923°N, 81.7937°W)
Time: 07:38:06
(UTC+00:00)

SL-19 R/B - Pass Details

Date: 19 September 2020
Orbit: 358 x 809 km, 99.4° (Epoch: 29 October)

Event Time Altitude Azimuth Distance (km) Brightness Sun altitude
Rises 09:35:17 0° 13° (NNE) 3,046 8.5 -22.8°
Reaches altitude 10° 09:37:40 10° 14° (NNE) 2,057 7.5 -22.3°
Maximum altitude 09:42:09 89° 97° (E) 591 4.3 -21.3°
Enters shadow 09:43:36 39° 193° (SSW) 855 5.0 -21.0°
